Tracking 30743 objects as of 22-Jun-2025
HD Live streaming from Space Station
objects crossing your sky now

STARLINK-6307

Track STARLINK-6307 now!
10-day predictions
STARLINK-6307 is classified as:


NORAD ID: 56529
Int'l Code: 2023-065AC
Perigee: 564.6 km
Apogee: 567.3 km
Inclination: 43.0 °
Period: 95.8 minutes
Semi major axis: 6936 km
RCS: Unknown
Launch date: May 14, 2023
Source: United States (US)
Launch site: AIR FORCE EASTERN TEST RANGE (AFETR)
Your satellite tracking list
Your tracking list is empty




NASA's NSSDC Master Catalog

Two Line Element Set (TLE):
1 56529U 23065AC  25173.04628028 -.00021248  00000-0 -15586-2 0  9997
2 56529  43.0034 173.8951 0001946 279.7018  80.3604 15.02630533116783
Source of the keplerian elements: AFSPC